• In Österreich
  • Länderverzeichnis
  • Für 7 Tage
  • Wassertemperatur
  • Satellitenkarten
  • Wetterkarte
  • News
  • Widgets
  • user-avatar
    Anmelden

    Stündliche Wetter Sala

    Heute, 23 Oktober, Dienstag

    Zeit Temperatur Niederschläge Wind Luftdruck Luftfeuchtigkeit
    00:00 +24°C° 0 mm 2 m/S 761 mmHg 65%
    01:00 +23°C° 0.4 mm 2 m/S 761 mmHg 70%
    02:00 +22°C° 0.4 mm 3 m/S 761 mmHg 74%
    03:00 +21°C° 0.4 mm 3 m/S 762 mmHg 78%
    04:00 +21°C° 0.6 mm 2 m/S 762 mmHg 80%
    05:00 +21°C° 0.6 mm 2 m/S 762 mmHg 82%
    06:00 +20°C° 0 mm 4 m/S 762 mmHg 85%
    07:00 +20°C° 0.2 mm 3 m/S 762 mmHg 83%
    08:00 +21°C° 0.2 mm 3 m/S 763 mmHg 81%
    09:00 +21°C° 0.2 mm 2 m/S 763 mmHg 79%
    10:00 +23°C° 0 mm 2 m/S 763 mmHg 72%
    11:00 +25°C° 0 mm 2 m/S 762 mmHg 65%
    12:00 +26°C° 0 mm 2 m/S 762 mmHg 57%
    13:00 +27°C° 0 mm 3 m/S 762 mmHg 56%
    14:00 +27°C° 0 mm 3 m/S 762 mmHg 54%
    15:00 +28°C° 0 mm 4 m/S 761 mmHg 52%
    16:00 +27°C° 0 mm 4 m/S 761 mmHg 56%
    17:00 +26°C° 0 mm 4 m/S 762 mmHg 61%
    18:00 +25°C° 0 mm 5 m/S 762 mmHg 65%
    19:00 +23°C° 0 mm 4 m/S 762 mmHg 69%
    20:00 +24°C° 0 mm 3 m/S 762 mmHg 73%
    21:00 +22°C° 0 mm 3 m/S 762 mmHg 77%
    22:00 +23°C° 0 mm 2 m/S 762 mmHg 78%
    23:00 +21°C° 0 mm 2 m/S 762 mmHg 79%

    Morgen, 24 Oktober, Mittwoch

    Zeit Temperatur Niederschläge Wind Luftdruck Luftfeuchtigkeit
    00:00 +22°C° 0 mm 1 m/S 762 mmHg 80%
    01:00 +22°C° 0 mm 1 m/S 762 mmHg 81%
    02:00 +22°C° 0 mm 1 m/S 762 mmHg 81%
    03:00 +21°C° 0 mm 1 m/S 762 mmHg 82%
    04:00 +21°C° 0 mm 1 m/S 762 mmHg 82%
    05:00 +21°C° 0 mm 1 m/S 762 mmHg 82%
    06:00 +21°C° 0 mm 1 m/S 762 mmHg 82%
    07:00 +22°C° 0 mm 1 m/S 762 mmHg 76%
    08:00 +23°C° 0 mm 1 m/S 762 mmHg 70%
    09:00 +24°C° 0 mm 2 m/S 762 mmHg 65%
    10:00 +26°C° 0 mm 2 m/S 762 mmHg 58%
    11:00 +27°C° 0 mm 1 m/S 762 mmHg 52%
    12:00 +29°C° 0 mm 1 m/S 762 mmHg 46%
    13:00 +29°C° 0 mm 2 m/S 761 mmHg 44%
    14:00 +29°C° 0 mm 3 m/S 761 mmHg 42%
    15:00 +30°C° 0 mm 3 m/S 760 mmHg 40%
    16:00 +29°C° 0 mm 3 m/S 760 mmHg 45%
    17:00 +27°C° 0 mm 3 m/S 760 mmHg 50%
    18:00 +26°C° 0 mm 4 m/S 760 mmHg 55%
    19:00 +25°C° 0 mm 3 m/S 760 mmHg 58%
    20:00 +25°C° 0 mm 3 m/S 760 mmHg 61%
    21:00 +24°C° 0 mm 2 m/S 760 mmHg 64%
    22:00 +24°C° 0 mm 2 m/S 760 mmHg 64%
    23:00 +23°C° 0 mm 1 m/S 760 mmHg 65%

    übermorgen, 25 Oktober, Donnerstag

    Zeit Temperatur Niederschläge Wind Luftdruck Luftfeuchtigkeit
    00:00 +23°C° 0 mm 1 m/S 760 mmHg 65%
    01:00 +23°C° 0 mm 1 m/S 759 mmHg 65%
    02:00 +23°C° 0 mm 1 m/S 759 mmHg 65%
    03:00 +23°C° 0 mm 1 m/S 759 mmHg 64%
    04:00 +22°C° 0 mm 1 m/S 759 mmHg 64%
    05:00 +22°C° 0 mm 1 m/S 759 mmHg 63%
    06:00 +21°C° 0 mm 2 m/S 758 mmHg 62%
    07:00 +23°C° 0 mm 2 m/S 758 mmHg 58%
    08:00 +25°C° 0 mm 2 m/S 758 mmHg 53%
    09:00 +26°C° 0 mm 2 m/S 758 mmHg 49%
    10:00 +28°C° 0 mm 2 m/S 758 mmHg 44%
    11:00 +29°C° 0 mm 1 m/S 758 mmHg 39%
    12:00 +31°C° 0 mm 1 m/S 758 mmHg 34%
    13:00 +31°C° 0 mm 1 m/S 757 mmHg 33%
    14:00 +31°C° 0 mm 2 m/S 757 mmHg 32%
    15:00 +31°C° 0 mm 3 m/S 756 mmHg 31%
    16:00 +30°C° 0 mm 3 m/S 756 mmHg 35%
    17:00 +29°C° 0 mm 4 m/S 756 mmHg 39%
    18:00 +28°C° 0 mm 4 m/S 756 mmHg 43%
    19:00 +27°C° 0 mm 3 m/S 756 mmHg 46%
    20:00 +26°C° 0 mm 3 m/S 757 mmHg 49%
    21:00 +26°C° 0 mm 2 m/S 757 mmHg 51%
    22:00 +25°C° 0 mm 3 m/S 757 mmHg 55%
    23:00 +25°C° 0 mm 4 m/S 757 mmHg 59%

    26 Oktober, Freitag

    Zeit Temperatur Niederschläge Wind Luftdruck Luftfeuchtigkeit
    00:00 +23°C° 0 mm 5 m/S 757 mmHg 63%
    01:00 +23°C° 0.1 mm 5 m/S 757 mmHg 68%
    02:00 +22°C° 0.1 mm 4 m/S 757 mmHg 73%
    03:00 +22°C° 0.1 mm 4 m/S 756 mmHg 79%
    04:00 +22°C° 0 mm 3 m/S 756 mmHg 80%
    05:00 +21°C° 0 mm 2 m/S 756 mmHg 80%
    06:00 +22°C° 0 mm 1 m/S 756 mmHg 81%
    07:00 +23°C° 0 mm 1 m/S 756 mmHg 78%
    08:00 +23°C° 0 mm 1 m/S 756 mmHg 75%
    09:00 +24°C° 0 mm 1 m/S 756 mmHg 72%
    10:00 +25°C° 0 mm 1 m/S 756 mmHg 67%
    11:00 +26°C° 0 mm 1 m/S 756 mmHg 61%
    12:00 +27°C° 0 mm 1 m/S 755 mmHg 56%
    13:00 +27°C° 0 mm 1 m/S 755 mmHg 53%
    14:00 +28°C° 0 mm 2 m/S 755 mmHg 51%
    15:00 +28°C° 0 mm 3 m/S 754 mmHg 49%
    16:00 +27°C° 0.2 mm 2 m/S 754 mmHg 54%
    17:00 +26°C° 0.2 mm 2 m/S 754 mmHg 59%
    18:00 +25°C° 0.2 mm 2 m/S 755 mmHg 64%
    19:00 +24°C° 0.9 mm 2 m/S 755 mmHg 68%
    20:00 +24°C° 0.9 mm 2 m/S 755 mmHg 73%
    21:00 +23°C° 0.9 mm 1 m/S 756 mmHg 77%
    22:00 +23°C° 0.7 mm 1 m/S 756 mmHg 77%
    23:00 +23°C° 0.7 mm 1 m/S 756 mmHg 77%

    27 Oktober, Samstag

    Zeit Temperatur Niederschläge Wind Luftdruck Luftfeuchtigkeit
    00:00 +23°C° 0.7 mm 1 m/S 756 mmHg 78%
    01:00 +23°C° 0.4 mm 1 m/S 755 mmHg 78%
    02:00 +22°C° 0.4 mm 1 m/S 755 mmHg 78%
    03:00 +22°C° 0.4 mm 1 m/S 754 mmHg 78%
    04:00 +22°C° 0.6 mm 1 m/S 754 mmHg 79%
    05:00 +22°C° 0.6 mm 1 m/S 754 mmHg 80%
    06:00 +21°C° 0.6 mm 1 m/S 754 mmHg 80%
    07:00 +22°C° 0.1 mm 1 m/S 755 mmHg 76%
    08:00 +23°C° 0.1 mm 1 m/S 755 mmHg 71%
    09:00 +24°C° 0.1 mm 2 m/S 755 mmHg 67%
    10:00 +24°C° 0.4 mm 2 m/S 755 mmHg 63%
    11:00 +25°C° 0.4 mm 3 m/S 755 mmHg 58%
    12:00 +26°C° 0.4 mm 4 m/S 754 mmHg 54%
    13:00 +26°C° 0.4 mm 5 m/S 754 mmHg 56%
    14:00 +26°C° 0.4 mm 5 m/S 754 mmHg 58%
    15:00 +25°C° 0.4 mm 5 m/S 754 mmHg 60%
    16:00 +23°C° 0.6 mm 5 m/S 754 mmHg 66%
    17:00 +22°C° 0.6 mm 5 m/S 754 mmHg 71%
    18:00 +21°C° 0.6 mm 5 m/S 754 mmHg 77%
    19:00 +20°C° 0.2 mm 4 m/S 755 mmHg 79%
    20:00 +20°C° 0.2 mm 3 m/S 755 mmHg 80%
    21:00 +20°C° 0.2 mm 2 m/S 756 mmHg 82%
    22:00 +19°C° 0.2 mm 2 m/S 756 mmHg 82%
    23:00 +19°C° 0.2 mm 2 m/S 756 mmHg 83%

    28 Oktober, Sonntag

    Zeit Temperatur Niederschläge Wind Luftdruck Luftfeuchtigkeit
    00:00 +19°C° 0.2 mm 2 m/S 756 mmHg 83%
    01:00 +19°C° 0.3 mm 2 m/S 756 mmHg 84%
    02:00 +18°C° 0.3 mm 3 m/S 756 mmHg 84%
    03:00 +18°C° 0.3 mm 4 m/S 756 mmHg 84%
    04:00 +18°C° 0.1 mm 4 m/S 756 mmHg 83%
    05:00 +18°C° 0.1 mm 4 m/S 756 mmHg 81%
    06:00 +17°C° 0.1 mm 4 m/S 757 mmHg 79%
    07:00 +18°C° 0 mm 4 m/S 757 mmHg 72%
    08:00 +18°C° 0 mm 4 m/S 758 mmHg 65%
    09:00 +19°C° 0 mm 5 m/S 758 mmHg 58%
    10:00 +19°C° 0 mm 5 m/S 758 mmHg 56%
    11:00 +20°C° 0 mm 5 m/S 758 mmHg 54%
    12:00 +20°C° 0 mm 5 m/S 758 mmHg 53%
    13:00 +20°C° 0 mm 6 m/S 758 mmHg 53%
    14:00 +19°C° 0 mm 6 m/S 758 mmHg 54%
    15:00 +18°C° 0 mm 7 m/S 758 mmHg 54%
    16:00 +17°C° 0 mm 6 m/S 758 mmHg 55%
    17:00 +16°C° 0 mm 6 m/S 759 mmHg 56%
    18:00 +15°C° 0 mm 6 m/S 759 mmHg 57%
    19:00 +15°C° 0 mm 5 m/S 760 mmHg 56%
    20:00 +14°C° 0 mm 5 m/S 760 mmHg 56%
    21:00 +14°C° 0 mm 5 m/S 760 mmHg 55%
    22:00 +14°C° 0 mm 5 m/S 760 mmHg 54%
    23:00 +13°C° 0 mm 4 m/S 760 mmHg 53%

    29 Oktober, Montag

    Zeit Temperatur Niederschläge Wind Luftdruck Luftfeuchtigkeit
    00:00 +13°C° 0 mm 4 m/S 760 mmHg 52%
    01:00 +13°C° 0 mm 4 m/S 760 mmHg 52%
    02:00 +13°C° 0 mm 4 m/S 760 mmHg 52%
    03:00 +12°C° 0 mm 5 m/S 760 mmHg 52%
    04:00 +12°C° 0 mm 4 m/S 760 mmHg 52%
    05:00 +12°C° 0 mm 4 m/S 760 mmHg 52%
    06:00 +11°C° 0 mm 4 m/S 760 mmHg 53%
    07:00 +12°C° 0 mm 4 m/S 760 mmHg 49%
    08:00 +13°C° 0 mm 4 m/S 760 mmHg 45%
    09:00 +14°C° 0 mm 5 m/S 760 mmHg 42%
    10:00 +15°C° 0 mm 5 m/S 760 mmHg 39%
    11:00 +16°C° 0 mm 5 m/S 760 mmHg 37%
    12:00 +17°C° 0 mm 5 m/S 759 mmHg 34%
    13:00 +17°C° 0 mm 5 m/S 759 mmHg 34%
    14:00 +17°C° 0 mm 5 m/S 759 mmHg 33%
    15:00 +19°C° 0 mm 5 m/S 758 mmHg 33%
    16:00 +18°C° 0 mm 4 m/S 758 mmHg 37%
    17:00 +17°C° 0 mm 4 m/S 758 mmHg 41%
    18:00 +15°C° 0 mm 4 m/S 759 mmHg 45%
    19:00 +14°C° 0 mm 4 m/S 759 mmHg 48%
    20:00 +14°C° 0 mm 3 m/S 759 mmHg 50%
    21:00 +13°C° 0 mm 3 m/S 759 mmHg 53%
    22:00 +13°C° 0 mm 3 m/S 759 mmHg 53%
    23:00 +14°C° 0 mm 2 m/S 759 mmHg 54%
    Mehr zeigen